Weather History for KCMY - October, 2013

Change the Weather History Date:

Sunday, October 6, 2013

  Actual Average Record
Temperature  
Mean Temperature 44 °F -  
Max Temperature 55 °F 63 °F 90 °F (1963)
Min Temperature 32 °F 39 °F 23 °F (1980)
Degree Days  
Heating Degree Days 22    
Moisture  
Dew Point 39 °F    
Average Humidity 82    
Maximum Humidity 100    
Minimum Humidity 44    
Precipitation  
Precipitation 0.00 in - - ()
Sea Level Pressure  
Sea Level Pressure 29.74 in    
Wind  
Wind Speed 1 mph (WSW)    
Max Wind Speed 6 mph    
Max Gust Speed -    
Visibility 10 miles    
Events      
Averages and records for this station are not official NWS values.
T = Trace of Precipitation, MM = Missing Value Source: NWS Daily Summary

Daily Weather History Graph

Daily Weather History Graph

Search for Another Location

Airport or City:

Trip Planner

Search our weather history database for the weather conditions in past years. The results will help you decide how hot, cold, wet, or windy it might be!

Date:

Astronomy

Oct. 06, 2013 Rise Set
Actual Time 7:06 AM CDT 6:34 PM CDT
Civil Twilight 6:38 AM CDT 7:03 PM CDT
Nautical Twilight 6:04 AM CDT 7:36 PM CDT
Astronomical Twilight 5:30 AM CDT 8:09 PM CDT
Moon 8:56 AM CDT (10/6) 7:28 PM CDT (10/6)
Length of Visible Light 12h 25m
Length of Day
11h 27m
Waxing Crescent, 3% of the Moon is Illuminated
Oct 6
Waxing Crescent
Oct 11
First Quarter
Oct 18
Full
Oct 26
Last Quarter
Nov 3
New

Hourly Weather History & Observations

Time (CDT) Temp. Dew Point Humidity Pressure Visibility Wind Dir Wind Speed Gust Speed Precip Events Conditions
12:15 AM 44.1 °F 43.5 °F 98% 29.77 in 2.0 mi Calm Calm - N/A   Clear
12:35 AM 44.1 °F 43.7 °F 99% 29.77 in 1.8 mi Calm Calm - N/A   Mist
12:55 AM 43.9 °F 43.7 °F 99% 29.77 in 10.0 mi Calm Calm - N/A   Clear
1:15 AM 44.2 °F 44.1 °F 99% 29.78 in 10.0 mi Calm Calm - N/A   Clear
1:35 AM 42.1 °F 41.7 °F 99% 29.78 in 10.0 mi Calm Calm - N/A   Clear
1:55 AM 41.0 °F 41.0 °F 100% 29.77 in 7.0 mi Calm Calm - N/A   Scattered Clouds
2:15 AM 40.8 °F 40.8 °F 100% 29.76 in 10.0 mi Calm Calm - N/A   Clear
2:35 AM 40.1 °F 40.1 °F 100% 29.75 in 10.0 mi Calm Calm - N/A   Clear
2:55 AM 39.4 °F 39.4 °F 100% 29.75 in 10.0 mi Calm Calm - N/A   Clear
3:15 AM 38.5 °F 38.5 °F 100% 29.75 in 10.0 mi Calm Calm - N/A   Clear
3:35 AM 37.6 °F 37.6 °F 100% 29.75 in 10.0 mi Calm Calm - N/A   Clear
3:55 AM 37.9 °F 37.9 °F 100% 29.74 in 10.0 mi Calm Calm - N/A   Clear
4:15 AM 36.5 °F 36.5 °F 100% 29.74 in 10.0 mi Calm Calm - N/A   Clear
4:35 AM 35.8 °F 35.8 °F 100% 29.73 in 10.0 mi Calm Calm - N/A   Clear
4:55 AM 35.8 °F 35.8 °F 100% 29.73 in 10.0 mi Calm Calm - N/A   Clear
5:15 AM 34.9 °F 34.9 °F 100% 29.73 in 10.0 mi Calm Calm - N/A   Clear
5:35 AM 34.9 °F 34.9 °F 100% 29.74 in 10.0 mi Calm Calm - N/A   Clear
5:55 AM 34.2 °F 34.2 °F 100% 29.74 in 10.0 mi Calm Calm - N/A   Clear
6:15 AM 33.8 °F 33.8 °F 100% 29.74 in 10.0 mi Calm Calm - N/A   Clear
6:35 AM 32.4 °F 32.4 °F 100% 29.74 in 10.0 mi Calm Calm - N/A   Clear
6:55 AM 32.9 °F 32.9 °F 100% 29.74 in 10.0 mi Calm Calm - N/A   Clear
7:15 AM 33.4 °F 33.4 °F 100% 29.73 in 10.0 mi Calm Calm - N/A   Clear
7:35 AM 33.3 °F 33.3 °F 100% 29.73 in 10.0 mi Calm Calm - N/A   Clear
7:55 AM 35.6 °F 35.6 °F 100% 29.73 in 10.0 mi Calm Calm - N/A   Mostly Cloudy
8:15 AM 37.6 °F 37.6 °F 100% 29.73 in 10.0 mi Calm Calm - N/A   Overcast
8:35 AM 39.4 °F 39.4 °F 100% 29.73 in 10.0 mi Calm Calm - N/A   Overcast
8:55 AM 40.1 °F 40.1 °F 100% 29.73 in 10.0 mi Calm Calm - N/A   Overcast
9:15 AM 41.2 °F 41.2 °F 100% 29.73 in 10.0 mi Calm Calm - N/A   Overcast
9:35 AM 42.6 °F 41.9 °F 97% 29.73 in 10.0 mi Calm Calm - N/A   Overcast
9:55 AM 43.7 °F 42.4 °F 95% 29.74 in 10.0 mi Calm Calm - N/A   Overcast
10:15 AM 44.8 °F 43.0 °F 93% 29.74 in 10.0 mi Calm Calm - N/A   Overcast
10:35 AM 45.0 °F 43.7 °F 95% 29.74 in 10.0 mi Calm Calm - N/A   Overcast
10:55 AM 46.4 °F 44.1 °F 92% 29.74 in 10.0 mi Calm Calm - N/A   Overcast
11:15 AM 47.8 °F 42.3 °F 81% 29.73 in 10.0 mi Calm Calm - N/A   Overcast
11:35 AM 49.3 °F 41.7 °F 75% 29.73 in 10.0 mi Calm Calm - N/A   Overcast
11:55 AM 49.5 °F 41.4 °F 74% 29.73 in 10.0 mi Calm Calm - N/A   Overcast
12:15 PM 50.5 °F 40.5 °F 68% 29.73 in 10.0 mi Calm Calm - N/A   Overcast
12:35 PM 51.1 °F 37.6 °F 60% 29.73 in 10.0 mi Calm Calm - N/A   Overcast
12:55 PM 52.0 °F 38.8 °F 61% 29.72 in 10.0 mi Calm Calm - N/A   Overcast
1:15 PM 53.8 °F 36.7 °F 52% 29.71 in 10.0 mi SSW 3.5 mph - N/A   Scattered Clouds
1:35 PM 55.2 °F 35.4 °F 47% 29.71 in 10.0 mi Calm Calm - N/A   Clear
1:55 PM 54.5 °F 33.6 °F 45% 29.70 in 10.0 mi Calm Calm - N/A   Scattered Clouds
2:15 PM 54.5 °F 33.8 °F 46% 29.70 in 10.0 mi ENE 3.5 mph - N/A   Clear
2:35 PM 55.2 °F 33.8 °F 44% 29.70 in 10.0 mi West 3.5 mph - N/A   Clear
2:55 PM 54.5 °F 34.2 °F 46% 29.70 in 10.0 mi Calm Calm - N/A   Clear
3:15 PM 54.7 °F 34.2 °F 46% 29.69 in 10.0 mi Calm Calm - N/A   Mostly Cloudy
3:35 PM 54.3 °F 34.3 °F 47% 29.69 in 10.0 mi West 3.5 mph - N/A   Overcast
3:55 PM 53.8 °F 35.8 °F 51% 29.69 in 10.0 mi Calm Calm - N/A   Overcast
4:15 PM 53.6 °F 36.9 °F 53% 29.69 in 10.0 mi Calm Calm - N/A   Overcast
4:35 PM 53.6 °F 37.4 °F 54% 29.70 in 10.0 mi WSW 4.6 mph - N/A   Overcast
4:55 PM 52.7 °F 38.7 °F 59% 29.70 in 10.0 mi West 5.8 mph - N/A   Overcast
5:15 PM 51.8 °F 39.2 °F 62% 29.71 in 10.0 mi WSW 5.8 mph - N/A   Overcast
5:35 PM 51.8 °F 39.4 °F 63% 29.71 in 10.0 mi WSW 3.5 mph - N/A   Overcast
5:55 PM 50.5 °F 40.1 °F 67% 29.72 in 10.0 mi WSW 3.5 mph - N/A   Overcast
6:15 PM 50.0 °F 39.9 °F 68% 29.73 in 10.0 mi WSW 4.6 mph - N/A   Overcast
6:35 PM 49.5 °F 39.2 °F 68% 29.74 in 10.0 mi WSW 4.6 mph - N/A   Overcast
6:55 PM 49.1 °F 39.2 °F 69% 29.74 in 10.0 mi SW 3.5 mph - N/A   Overcast
7:15 PM 48.9 °F 39.9 °F 71% 29.74 in 10.0 mi SSW 3.5 mph - N/A   Overcast
7:35 PM 49.1 °F 41.5 °F 75% 29.76 in 10.0 mi West 3.5 mph - N/A   Overcast
7:55 PM 48.9 °F 42.1 °F 77% 29.76 in 10.0 mi WSW 4.6 mph - N/A   Overcast
8:15 PM 48.2 °F 42.1 °F 79% 29.76 in 10.0 mi Calm Calm - N/A   Mostly Cloudy
8:35 PM 47.8 °F 42.4 °F 82% 29.75 in 10.0 mi South 3.5 mph - N/A   Mostly Cloudy
8:55 PM 47.7 °F 42.4 °F 82% 29.76 in 10.0 mi WNW 3.5 mph - N/A   Scattered Clouds
9:15 PM 47.1 °F 42.3 °F 83% 29.76 in 10.0 mi Calm Calm - N/A   Clear
9:35 PM 46.9 °F 42.8 °F 86% 29.76 in 10.0 mi Calm Calm - N/A   Scattered Clouds
9:55 PM 46.8 °F 42.4 °F 85% 29.76 in 10.0 mi Calm Calm - N/A   Mostly Cloudy
10:15 PM 46.8 °F 42.4 °F 85% 29.76 in 10.0 mi Calm Calm - N/A   Mostly Cloudy
10:35 PM 46.9 °F 42.1 °F 83% 29.75 in 10.0 mi Calm Calm - N/A   Overcast
10:55 PM 47.3 °F 42.1 °F 82% 29.76 in 10.0 mi WSW 3.5 mph - N/A   Overcast
11:15 PM 47.3 °F 41.7 °F 81% 29.76 in 10.0 mi West 4.6 mph - N/A   Overcast
11:35 PM 47.5 °F 41.9 °F 81% 29.75 in 10.0 mi West 5.8 mph - N/A   Overcast
11:55 PM 46.8 °F 43.2 °F 87% 29.76 in 4.0 mi West 5.8 mph - N/A   Light Drizzle